Patuxent River, MD

5:37 PM EST on February 21, 2017 (GMT -0500)
Patuxent River Naval Air Station

Weather History for KNHK - July, 2013

Change the Weather History Date:

Tuesday, July 2, 2013

  Actual Average Record
Temperature  
Mean Temperature 78 °F -  
Max Temperature 84 °F 84 °F 95 °F (1983)
Min Temperature 72 °F 66 °F 57 °F (1988)
Cooling Degree Days 13    
Growing Degree Days 28 (Base 50)    
Moisture  
Dew Point 71 °F    
Average Humidity 86    
Maximum Humidity 94    
Minimum Humidity 65    
Precipitation  
Precipitation 0.16 in - - ()
Sea Level Pressure  
Sea Level Pressure 30.12 in    
Wind  
Wind Speed 8 mph (South)    
Max Wind Speed 14 mph    
Max Gust Speed 21 mph    
Visibility 9 miles    
Events Rain    
Averages and records for this station are not official NWS values.
T = Trace of Precipitation, MM = Missing Value Source: NWS Daily Summary

Daily Weather History Graph

Daily Weather History Graph

Search for Another Location

Airport or City:

Trip Planner

Search our weather history database for the weather conditions in past years. The results will help you decide how hot, cold, wet, or windy it might be!

Date:

Astronomy

Jul. 02, 2013 Rise Set
Actual Time 5:46 AM EDT 8:32 PM EDT
Civil Twilight 5:15 AM EDT 9:04 PM EDT
Nautical Twilight 4:35 AM EDT 9:43 PM EDT
Astronomical Twilight 3:50 AM EDT 10:28 PM EDT
Moon 1:45 AM EDT (7/2) 3:46 PM EDT (7/2)
Length of Visible Light 15h 49m
Length of Day
14h 46m
Waning Crescent, 26% of the Moon is Illuminated
Jul 2
Waning Crescent
Jul 8
New
Jul 15
First Quarter
Jul 22
Full
Jul 29
Last Quarter

Hourly Weather History & Observations

Time (EDT) Temp. Heat Index Dew Point Humidity Pressure Visibility Wind Dir Wind Speed Gust Speed Precip Events Conditions
12:20 AM 75.2 °F - 71.6 °F 89% 30.02 in 10.0 mi South 8.1 mph - N/A   Mostly Cloudy
12:40 AM 75.2 °F - 71.6 °F 89% 30.02 in 10.0 mi South 11.5 mph - N/A   Scattered Clouds
12:52 AM 75.9 °F - 71.1 °F 85% 30.03 in 10.0 mi South 12.7 mph 20.7 mph N/A   Partly Cloudy
1:52 AM 75.0 °F - 71.1 °F 87% 30.04 in 10.0 mi SSW 5.8 mph - N/A   Clear
2:48 AM 75.2 °F - 69.8 °F 83% 30.04 in 10.0 mi Variable 5.8 mph - N/A   Overcast
2:52 AM 75.0 °F - 70.0 °F 84% 30.04 in 10.0 mi South 5.8 mph - N/A   Overcast
3:52 AM 75.0 °F - 71.1 °F 87% 30.05 in 10.0 mi SSE 4.6 mph - N/A   Overcast
4:52 AM 73.9 °F - 71.1 °F 91% 30.05 in 10.0 mi SSE 6.9 mph - N/A   Mostly Cloudy
5:00 AM 75.2 °F - 71.6 °F 89% 30.05 in 10.0 mi SSE 6.9 mph - N/A   Mostly Cloudy
5:31 AM 73.4 °F - 71.6 °F 94% 30.06 in 10.0 mi Variable 4.6 mph - 0.00 in Rain Light Rain
5:37 AM 73.4 °F - 71.6 °F 94% 30.06 in 9.0 mi South 4.6 mph - 0.00 in Rain Light Rain
5:44 AM 73.4 °F - 71.6 °F 94% 30.06 in 3.0 mi SSW 5.8 mph - 0.03 in Rain Rain
5:52 AM 73.0 °F - 71.1 °F 93% 30.07 in 3.0 mi SSW 9.2 mph - 0.05 in Rain Rain
6:25 AM 73.4 °F - 69.8 °F 88% 30.06 in 7.0 mi South 5.8 mph - 0.04 in Rain Light Rain
6:36 AM 73.4 °F - 69.8 °F 88% 30.07 in 7.0 mi South 6.9 mph - 0.04 in   Overcast
6:52 AM 73.0 °F - 70.0 °F 90% 30.08 in 7.0 mi South 6.9 mph - 0.04 in   Overcast
7:52 AM 73.9 °F - 71.1 °F 91% 30.10 in 8.0 mi SSE 4.6 mph - 0.00 in Rain Light Rain
8:10 AM 73.4 °F - 71.6 °F 94% 30.11 in 8.0 mi South 3.5 mph - 0.00 in Rain Light Rain
8:52 AM 75.9 °F - 72.0 °F 87% 30.12 in 8.0 mi South 8.1 mph - 0.00 in Rain Light Rain
9:23 AM 75.2 °F - 71.6 °F 89% 30.12 in 10.0 mi South 6.9 mph - 0.00 in   Mostly Cloudy
9:49 AM 75.2 °F - 71.6 °F 89% 30.12 in 10.0 mi SSW 8.1 mph - 0.00 in   Mostly Cloudy
9:52 AM 75.9 °F - 72.0 °F 87% 30.12 in 10.0 mi South 5.8 mph - 0.00 in   Mostly Cloudy
10:25 AM 77.0 °F - 71.6 °F 83% 30.13 in 10.0 mi SSW 6.9 mph - 0.00 in Rain Light Rain
10:52 AM 77.0 °F - 72.0 °F 84% 30.14 in 10.0 mi SSW 8.1 mph - 0.00 in Rain Light Rain
11:34 AM 78.8 °F - 71.6 °F 78% 30.14 in 10.0 mi SSW 8.1 mph 18.4 mph 0.00 in   Overcast
11:52 AM 79.0 °F - 72.0 °F 79% 30.15 in 10.0 mi South 11.5 mph - 0.00 in   Overcast
11:55 AM 78.8 °F - 71.6 °F 78% 30.14 in 10.0 mi SSW 6.9 mph - N/A   Overcast
12:47 PM 80.6 °F 84.6 °F 71.6 °F 74% 30.14 in 10.0 mi South 13.8 mph 18.4 mph N/A   Overcast
12:52 PM 80.1 °F 83.6 °F 71.1 °F 74% 30.14 in 10.0 mi Variable 6.9 mph 18.4 mph N/A   Overcast
1:21 PM 82.4 °F 87.2 °F 71.6 °F 70% 30.14 in 10.0 mi Variable 6.9 mph - N/A   Mostly Cloudy
1:52 PM 82.9 °F 88.0 °F 72.0 °F 69% 30.14 in 10.0 mi South 8.1 mph - N/A   Mostly Cloudy
2:52 PM 84.0 °F 89.0 °F 71.1 °F 65% 30.13 in 10.0 mi SSW 9.2 mph - N/A   Mostly Cloudy
3:52 PM 82.9 °F 87.0 °F 70.0 °F 65% 30.14 in 10.0 mi SSW 6.9 mph - N/A   Mostly Cloudy
4:30 PM 80.6 °F 84.6 °F 71.6 °F 74% 30.16 in 6.0 mi SSW 3.5 mph - 0.01 in Rain Light Rain
4:52 PM 77.0 °F - 73.0 °F 88% 30.17 in 5.0 mi South 5.8 mph - 0.06 in Rain Light Rain
5:16 PM 75.2 °F - 73.4 °F 94% 30.17 in 5.0 mi South 11.5 mph 17.3 mph N/A Rain Light Rain
5:35 PM 73.4 °F - 71.6 °F 94% 30.17 in 5.0 mi South 10.4 mph - N/A Rain Light Rain
5:52 PM 73.9 °F - 71.1 °F 91% 30.17 in 5.0 mi SSW 9.2 mph - N/A Rain Light Rain
6:52 PM 73.0 °F - 71.1 °F 93% 30.17 in 10.0 mi SSW 8.1 mph - 0.01 in Rain Light Rain
7:48 PM 73.4 °F - 69.8 °F 88% 30.18 in 10.0 mi SSW 6.9 mph - 0.00 in   Mostly Cloudy
7:52 PM 73.0 °F - 70.0 °F 90% 30.18 in 10.0 mi SSW 6.9 mph - 0.00 in   Mostly Cloudy
8:52 PM 73.0 °F - 69.1 °F 87% 30.19 in 10.0 mi SSW 4.6 mph - N/A   Mostly Cloudy
9:52 PM 72.0 °F - 69.1 °F 91% 30.20 in 10.0 mi South 6.9 mph - N/A   Mostly Cloudy
10:52 PM 72.0 °F - 69.1 °F 91% 30.21 in 10.0 mi South 6.9 mph - N/A   Scattered Clouds
11:52 PM 72.0 °F - 70.0 °F 93% 30.21 in 10.0 mi South 5.8 mph - N/A   Clear